Regional Weather Roundup
Issued by NWS

Home | Current Version | Previous Version | Text Only | Print | Product List | Glossary On
Versions: 1 2 3 4 5 6 7 8 9 10 11 12 13 14 15 16 17 18 19 20 21 22 23 24 25 26 27 28 29 30 31 32 33 34 35 36 37 38 39 40 41 42 43 44 45 46 47 48 49 50
988
ASHW40 PHFO 250143
RWRHI

WEATHER ROUNDUP FOR HAWAII
NATIONAL WEATHER SERVICE HONOLULU HI
300 PM HST TUE MAY 24 2016

THIS IS AN AUTOMATED REPORT THAT HAS NOT BEEN QUALITY CONTROLLED.

NOTE..."FAIR" INDICATES FEW OR NO CLOUDS BELOW 12,000 FEET WITH NO
SIGNIFICANT WEATHER AND/OR OBSTRUCTIONS TO VISIBILITY.

* - THESE SITES REPORT LIMITED FIELDS

HIZ001>004-250200-
KAUAI-NIIHAU-

CITY           SKY/WX    TMP DP  RH WIND       PRES   REMARKS
LIHUE APT      MOSUNNY   81  68  64 NE13      30.05F
PORT ALLEN*      N/A     81 N/A N/A SE14G22     N/A
POIPU*           N/A     84 N/A N/A NE8G16      N/A
PRINCEVILLE*     N/A     77 N/A N/A E8          N/A
KOKOLE POINT*  NOT AVBL
MOLOAA DAIRY*    N/A     79  70  73 E6G12       N/A
WAIMEA HTS*      N/A     84  64  51 SW9         N/A
PUU OPAE*        N/A    N/A N/A N/A W5G10       N/A
PUU LUA*       NOT AVBL
MAKAHA RIDGE*    N/A     72  64  78 NE1         N/A
$$

HIZ005>011-250200-
OAHU-

CITY           SKY/WX    TMP DP  RH WIND       PRES   REMARKS
HONOLULU       MOSUNNY   87  62  43 NE12G21   30.00F
KALAELOA       PTSUNNY   85  65  51 SE10G20   30.01F
KANEOHE MCB    PTSUNNY   82  68  62 NE9       30.01F
WHEELER FIELD  FAIR      83  60  46 E12       30.01F
BELLOWS*         N/A    N/A N/A N/A NE12        N/A
KAHUKU*          N/A    N/A N/A N/A VRB8G17     N/A
WHEELER*         N/A    N/A N/A N/A NE10G20     N/A
WAIANAE HARBOR   N/A    N/A N/A N/A W8          N/A
DILLINGHAM*      N/A     86  63  45 MISG        N/A
KAHUKU TRN*      N/A     79  63  57 CALM        N/A
KAWAILOA*        N/A     79  61  53 E12G21      N/A
KII*             N/A     81  70  69 E13         N/A
MAKUA RANGE*     N/A     82  66  57 W6          N/A
OAHU FOREST NW NOT AVBL
SCHOFIELD BRK*   N/A     82  61  47 MISG        N/A
SCHOFIELD S*   NOT AVBL
WAIANAE VLY*     N/A     81  63  54 S6G15       N/A
KUAOKALA*        N/A     79  68  69 E12G24      N/A
HONOULIUULI*   NOT AVBL
MOKUOLOE IS*   NOT AVBL
PALEHUA*         N/A     75  63  64 NE3G12      N/A
WAIAWA PHB*    NOT AVBL
$$

HIZ012>013-250200-
MOLOKAI-

CITY           SKY/WX    TMP DP  RH WIND       PRES   REMARKS
MOLOKAI AIRPT  MOSUNNY   82  67  60 NE13G23   30.02F
KALAUPAPA      NOT AVBL
MAKAPULAPAI*     N/A     82  70  65 E17G24      N/A
MOLOKAI 1*       N/A     75  63  64 VRB5G12     N/A
PUU ALII*        N/A     71  65  81 N2          N/A
$$

HIZ016-250200-
KAHOOLAWE-

CITY           SKY/WX    TMP DP  RH WIND       PRES   REMARKS
KAHOOLAWE*       N/A     75 N/A N/A E1          N/A
HAKIOAWA*        N/A     94  80  63 MISG      30.43S HX 113
HONOKANAIA*      N/A     84  69  59 E20G30    29.95F
KANELOA*         N/A     79  68  69 E20G28    30.09
KEALIALALO*    NOT AVBL
LUA MAKIKA*    NOT AVBL
$$

HIZ014>015-250200-
LANAI-

CITY           SKY/WX    TMP DP  RH WIND       PRES   REMARKS
LANAI CITY     MOSUNNY   79  66  65 NE18      30.05F
LANAI 1*         N/A     79 N/A N/A NE17        N/A
$$

HIZ017>028-250200-
MAUI-

CITY           SKY/WX    TMP DP  RH WIND       PRES   REMARKS
KAHULUI        MOSUNNY   84  67  56 NE22G29   30.00F
KAPALUA-W MAUI MOSUNNY   82  66  57 E17G30    30.02
HANA AIRPORT   NOT AVBL
HANA*            N/A     79 N/A N/A NE14        N/A
HALEAKALA SUMM   N/A     48  39  71 E10         N/A
MAALAEA BAY*     N/A     79 N/A N/A N17G28      N/A
HALEAKALA*     NOT AVBL
KAUPO GAP*       N/A     70  59  68 S6G15       N/A
KULA 1*          N/A     56  55  95 S3G14       N/A
$$

HIZ023>026-250200-
BIG ISLAND OF HAWAII COAST AND LOWER SLOPES-

CITY           SKY/WX    TMP DP  RH WIND       PRES   REMARKS
KAILUA KONA    PTSUNNY   82  70  66 SW12      29.98F
HILO           MOSUNNY   81  67  62 E10       30.02F
HONOKAA*         N/A     73 N/A N/A VRB1        N/A
KAWAIHAE MWT*    N/A     84 N/A N/A SW12        N/A
KAWAIHAE*        N/A     79 N/A N/A W9        29.98S
SOUTH POINT*     N/A     75 N/A N/A N17G26      N/A
UPOLU AIRPORT*   N/A    N/A N/A N/A NE18G26     N/A
KAMUELA*       MOCLDY    73  63  68 NE14      30.09S
HAKALAU*         N/A     57  53  88 E5G12       N/A
KALOKO-HONOKO*   N/A     82  66  57 CALM      29.97F
PALI 2*          N/A     75  59  57 SW16G25     N/A
KEALAKOMO*       N/A     82  68  61 E22G30      N/A
KAUPULEHU*       N/A     73  68  83 SW12        N/A
KAPAPALA*        N/A     71  64  79 E10G20      N/A
LOWER KAHUKU*    N/A     64 -38   1 SE2G9       N/A
PUHE CS*         N/A     84  70  61 SW3G12      N/A
PUHO CS*         N/A     84  67  56 W3G10       N/A
PTA KEAMUKU*     N/A     72  59  64 CALM        N/A
WAIKOLOA*        N/A     72  70  94 S3G12       N/A
$$

HIZ027>028-250200-
BIG ISLAND OF HAWAII INTERIOR AND SUMMMITS-

CITY           SKY/WX    TMP DP  RH WIND       PRES   REMARKS
BRADSHAW FIELD MOSUNNY   68  54  61 W10G20    30.28F
MK VISITOR CEN   N/A     46  45  93 E6          N/A
MAUNA KEA*       N/A     41  32  70 N13         N/A
MAUNA LOA*       N/A     43  39  87 MISG        N/A
MAUNA LOA 1*   NOT AVBL
PTA KIPUKA*      N/A     66  57  72 N9G17       N/A
PTA RANGE 17*    N/A     64  57  77 NW14G22     N/A
PTA WEST*        N/A     72  68  88 N12G20      N/A
NENE CABIN*      N/A     55  55 100 E7G13       N/A
AHUMOA*          N/A     59  58  97 N12G17      N/A
PTA PORTABLE*  NOT AVBL
PUU MALI*        N/A     63  52  67 E18G32      N/A
$$

HIC003-250200-
NORTHWEST ISLANDS-

CITY           SKY/WX    TMP DP  RH WIND       PRES   REMARKS
MIDWAY ISLAND  CLOUDY    75  66  73 E10       30.18F
MIDWAY NOS*      N/A     73 N/A N/A MISG      30.16F
FRENCH FRIGATE NOT AVBL
$$

PHZ110>124-180-250200-
BUOY REPORTS

STATION/POSITION TIME  TEMP    WIND        PRES    WAVE   SWELL
                       AIR SEA DIR/SP/G            HT/PER HT/DIR
                 (UTC) (F)     (DEG/KT/KT) (MB)    (FT/S) (FT/D)
BUOY 51001       0100   79 80   70/ 12/ 14 1017.1F
BUOY 51101       0050   76 79   50/  8/ 10 1018.2F   4/ 8   5/100
BUOY 51100       NOT AVBL
BUOY 51002       0050   78 79   70/ 14/ 17 1014.7F   6/ 8   5/ 90
BUOY 51003       0050   78 80   70/ 10/ 12 1015.7F   5/ 7   5/ 70
BUOY 51004       0050   78 79   80/ 14/ 16 1015.0F   7/ 7   5/ 80
BARBERS PT BUOY  NOT AVBL
WAIMEA BAY BUOY  0104      78                N/A     4/ 9
KAILUA BAY BUOY  0111      79                N/A     5/ 8   2/ 70
LANAI BUOY       0115      81                N/A     2/14   2/190
BARBERS PT 2     0103      80                N/A     3/14   2/190
PAUWELA MAUI     0109      78                N/A     6/ 8   2/ 50
HILO             0112      80                N/A     7/ 9   2/ 60
KANEOHE BAY BUOY 0106      78                N/A     4/ 9
HANALEI KAUAI    NOT AVBL
KAHULUI HARBOR   0106   77 79              1016.2F
HONOLULU HARBOR  0106   83 80              1016.5F
KILO NALU        NOT AVBL
HILO HARBOR      0100      79              1016.0F
MOKUOLOE         0000   80 80              1017.4F
NAWILIWILI       0100      80                N/A
WHOTS BUOY       NOT AVBL
BUOY 51028       NOT AVBL
$$

......................KEY........................................
  SKY/WX - SKY CONDITIONS/PRESENT WEATHER
  TMP    - TEMPERATURE IN FAHRENHEIT
  DWPT   - DEWPOINT IN FAHRENHEIT
  RH     - RELATIVE HUMIDITY IN PERCENT
  WIND   - DIRECTION AND SPEED /MPH FOR ISLANDS...KTS FOR BUOYS/
  PRES   - MEAN SEA LEVEL PRESSURE IN INCHES OF HG
  VSB    - VISIBILITY IN MILES
  HX     - HEAT INDEX
  WCI    - WIND CHILL INDEX
  VRB    - VARIABLE WIND DIRECTION
  N/A    - NOT AVAILABLE




USA.gov is the U.S. government's official web portal to all federal, state and local government web resources and services.